AB9HP Weather Reports


Display with metric or nautical units.
time (UTC)temp
F
wind
direction
speed
MPH
gust
MPH
rain 1hr
in
rain 24hr
in
rain mn
in
humidity
%
barometer
mb
20260505003029 69 199 3.0 14.0 0.00 0.00 0.00 63 1002.8
20260505001527 70 204 3.0 10.0 0.00 0.00 0.00 62 1002.6
20260505000031 71 194 4.0 14.0 0.00 0.00 0.00 60 1002.5
20260504233021 72 212 5.0 16.0 0.00 0.00 0.00 58 1002.7
20260504231518 72 211 6.0 15.0 0.00 0.00 0.00 60 1003.0
20260504230016 72 207 12.0 23.0 0.00 0.00 0.00 58 1003.4
20260504223015 74 236 8.0 23.0 0.00 0.00 0.00 54 1003.6
20260504221512 75 215 15.0 26.0 0.00 0.00 0.00 50 1003.6
20260504220010 75 222 12.0 30.0 0.00 0.00 0.00 48 1003.5
20260504213008 76 221 15.0 32.0 0.00 0.01 0.00 48 1003.3
20260504211505 75 222 8.0 24.0 0.00 0.01 0.00 50 1003.5
20260504210003 75 161 8.0 20.0 0.00 0.03 0.00 51 1003.5
20260504203105 75 266 7.0 25.0 0.00 0.03 0.00 52 1003.5
20260504201557 75 219 8.0 29.0 0.00 0.03 0.00 51 1003.7
20260504193050 76 224 13.0 27.0 0.00 0.03 0.00 51 1004.3
20260504191605 75 229 9.0 24.0 0.00 0.03 0.00 52 1004.1
20260504190049 76 187 11.0 30.0 0.00 0.03 0.00 52 1004.3
20260504183042 75 236 12.0 27.0 0.00 0.03 0.00 53 1004.4
20260504181539 74 231 15.0 25.0 0.00 0.03 0.00 53 1004.5
20260504180034 74 194 6.0 20.0 0.00 0.03 0.00 56 1004.5
20260504173030 73 291 7.0 21.0 0.00 0.03 0.00 58 1004.8
20260504171539 72 229 9.0 18.0 0.00 0.03 0.00 59 1005.1
20260504081522 52 165 0.0 7.0 0.00 0.03 0.00 73 1008.5
20260504044530 48 139 0.0 0.0 0.00 0.03 0.00 80 1010.3
20260504043038 48 131 0.0 1.0 0.00 0.03 0.00 81 1010.4
20260504041524 48 172 0.0 1.0 0.00 0.03 0.00 81 1010.5
20260504040024 48 123 0.0 0.0 0.00 0.03 0.00 81 1010.7
20260504034518 49 149 0.0 1.0 0.00 0.03 0.03 80 1010.8
20260504033019 49 95 0.0 1.0 0.00 0.03 0.03 80 1011.1
20260504031515 49 142 0.0 1.0 0.00 0.03 0.03 79 1011.2
20260504030016 50 135 0.0 3.0 0.00 0.03 0.03 78 1011.3
20260504024512 50 139 0.0 1.0 0.00 0.03 0.03 77 1011.4
20260504023010 51 207 0.0 4.0 0.00 0.03 0.03 76 1011.4
20260504021511 50 138 0.0 3.0 0.00 0.03 0.03 77 1011.6
20260504020006 50 81 0.0 7.0 0.00 0.03 0.03 77 1011.7
20260504014506 50 118 0.0 6.0 0.00 0.03 0.03 77 1011.8
20260504013003 50 138 0.0 6.0 0.00 0.03 0.03 77 1011.7
20260504011602 50 147 0.0 7.0 0.00 0.03 0.03 79 1011.7
20260504010104 49 155 0.0 8.0 0.00 0.03 0.03 80 1011.9
20260504004608 49 161 0.0 7.0 0.00 0.03 0.03 82 1011.9